Вернуться в каталог

STARLINK-2144

АктивенСвязьVLEO
NORAD 47734·PAYLOAD·🇺🇸 United States

Запущен Mar 4, 2021 с Cape Canaveral Space Force Station

Loading…

Ближайшие Пролёты (ближайшие 24 часа)

TLE

СвежийSource: CelesTrak SupGP

Эпоха: Sep 14, 2026, 20:06 UTC

1 47734C 21017N   26257.83798611  .00056775  00000+0  18259-2 0  2574
2 47734  53.1601  43.6492 0001096  79.1017  43.0102 15.31671741    19

Отслеживайте STARLINK-2144 в реальном времени с AllMySat

Download on the App Store